OBJECT C, 58851

Orbit data source: Space-Track

You're viewing an Uncataloged Satellite

Recently launched and/or uncataloged satellites may have evolving metadata. Metadata may include but not limited to: Owner, Maufacturer, Bus, Motor, and Mission.

OBJECT C, 58851 is a satellite owned by IRSA (IR) in LEO that was launched on Sun, 28 Jan 2024 UTC launched from the Semnan, Iran (SEM). Unknown objects in Earth's orbit typically refer to objects detected orbiting the Earth but have not yet been identified or cataloged. These objects could be anything from previously untracked satellites, spent rocket stages, debris from satellite collisions, or even natural meteoroids temporarily captured by Earth's gravity.

Loading next visibility...
Identifier
58851, 2024-018C
Orbit
LEO
Country
Flag of IRIR / IRAN
Related business
Manufacturer
IRSA
Mission
Operational spacecraft
Bus & Motor
SIMORGH ST2, Unknown motor
Mass
1,500 kg wet, 1,500 kg dry
Launch date (UTC)
2024-01-28 (2 years ago)
Launch vehicle
Unknown
Launch site
Semnan, Iran (SEM)
Object type
Unknown
Shape & HBR
Cyl, 4.1 m
Radar Cross Section
10.544 m², Large (>1 m²)

Expand to show TLE details & history
Last TLE update: 9 hours ago

TLE from 9 hours ago
0 OBJECT C
1 58851U 24018C   26171.53773840  .00001338  00000-0  16064-3 0  9991
2 58851  58.6811 211.5807 0429366 111.9412 252.7824 14.41078051125774
Epoch: 2026-06-20T12:54Z
TLE epoch observation values (Epoch: 2026-06-20T12:54:20.597Z)
Latitude
-0.00003°
Longitude
109.24393°
Altitude
858.784 km
Speed
7.371 km/s
True Right ascension
14h 06m 19s
True Declination
0° 00' 00"
Sunlit
Object was in full shadow at epoch
Visualization orbit readout
Latitude
Unknown
Longitude
Unknown
Altitude
Unknown
Speed
Unknown
Apparent Right ascension
Unknown
Apparent Declination
Unknown
Sunlit
N/A
Visualization observer readout
Local Sidereal Time
08:33:45
Azimuth
Unknown
Elevation
Unknown
Doppler factor
Unknown
Orbital elements
Apogee altitude
1,060.602 km
Perigee altitude
448.112 km
Semi-major axis
7,132.494 km
Eccentricity
0.04294
Inclination
58.6811°
RAAN
211.5807°
Arg. of periapsis
111.9412°
True anomaly
248.16126°
Mean anomaly
252.7824°
Eccentric anomaly
250.46394°
Mean motion
3.60314 °/min
Orbital period
99.91 mins
BSTAR
0.00016064
Loading maneuver chart data...
Computing Atmospheric mass density...
Loading historical data...
Loading historical data...
Loading historical data...
Loading historical data...
Loading historical data...
Loading historical data...
Loading historical data...
Other satellites on launch #18 in the year 2024 (2024-01-28 UTC)

Documentation

Showing up to 5 results
|